Regional Weather Roundup
Issued by NWS

Home | Current Version | Previous Version | Text Only | Print | Product List | Glossary Off
Versions: 1 2 3 4 5 6 7 8 9 10 11 12 13 14 15 16 17 18 19 20 21 22 23 24 25 26 27 28 29 30 31 32 33 34 35 36 37 38 39 40 41 42 43 44 45 46 47 48 49 50

000
ASUS45 KCYS 231510
RWRWY

WYOMING REGIONAL WEATHER ROUNDUP
NATIONAL WEATHER SERVICE CHEYENNE WY
900 AM MDT SAT MAY 23 2015

NOTE:  "FAIR" INDICATES FEW OR NO CLOUDS BELOW 12,000 FEET
WITH NO SIGNIFICANT WEATHER AND/OR OBSTRUCTIONS TO VISIBILITY.

WYZ001-231600-
YELLOWSTONE NATIONAL PARK

CITY           SKY/WX    TMP DP  RH WIND       PRES   REMARKS
LK YELLOWSTONE   N/A     45  36  70 MISG      30.03S
W YELLOWSTONE  NOT AVBL

$$
WYZ002>013-054>058-071-098>099-231600-
NORTHERN WYOMING

CITY           SKY/WX    TMP DP  RH WIND       PRES   REMARKS
JACKSON        CLOUDY    46  45  93 CALM      29.97R
CODY           CLOUDY    48  48 100 N13G20    29.97S
GREYBULL       CLOUDY    55  51  86 NW10      29.93S
WORLAND        LGT RAIN  52  50  93 S3        29.95R
SHERIDAN       CLOUDY    50  45  83 CALM      29.99R
BUFFALO        CLOUDY    47  45  93 SE6       30.00R
GILLETTE       CLOUDY    47  43  86 SE15      30.00R
HULETT         CLOUDY    50  41  71 E7        30.04R
NEWCASTLE      CLOUDY    46  41  81 S16       30.05R

$$
WYZ014>020-022>026-101>103-231600-
CENTRAL WYOMING

CITY           SKY/WX    TMP DP  RH WIND       PRES   REMARKS
BIG PINEY      CLOUDY    42  40  92 E5        30.00R
PINEDALE       CLOUDY    43  41  93 S12       30.00S
DUBOIS         RAIN      39  37  93 SE7       29.99R WCI  34
LANDER         CLOUDY    49  43  80 CALM      29.95S
RIVERTON       NOT AVBL
CASPER         CLOUDY    44  42  93 E5        30.00S FOG
DOUGLAS        CLOUDY    48  45  89 SE12      30.01R

$$
WYZ021-027>030-104>119-231600-
SOUTHERN WYOMING

CITY           SKY/WX    TMP DP  RH WIND       PRES   REMARKS
EVANSTON       PTSUNNY   44  38  79 VRB3      29.97S
KEMMERER       CLOUDY    43  36  75 CALM      29.99R
FORT BRIDGER   CLOUDY    46  45  93 E5        30.01R
ROCK SPRINGS   FAIR      47  39  74 SE7       29.98R
DIXON          FAIR      53  38  57 E10       30.01S
RAWLINS        FAIR      48  38  68 E9        30.01F
SARATOGA       FAIR      50  37  62 E10       30.02S
LARAMIE        PTSUNNY   47  40  76 SE8       30.03R
CHEYENNE       CLOUDY    47  44  90 S8        30.03F
TORRINGTON     CLOUDY    48  47  96 E12       30.02S
PINE BLUFFS    CLOUDY    50  50 100 S5        30.04S

$$


USA.gov is the U.S. government's official web portal to all federal, state and local government web resources and services.